Location: Unnamed
(25.2826°S, 57.6099°W)
Time: 23:08:57
(UTC-04:00)

Hubble Space Telescope - Pass Details

Date: 27 January 2026
Orbit: 478 x 479 km, 28.5° (Epoch: 18 February)

Event Time Altitude Azimuth Distance (km) Brightness Sun altitude
Exits shadow 04:17:53 26° 303° (WNW) 974 1.5 -14.2°
Maximum altitude 04:19:51 65° 18° (NNE) 531 0.6 -13.8°
Drops below altitude 10° 04:23:37 10° 100° (E) 1,655 4.5 -13.1°
Sets 04:25:51 0° 103° (ESE) 2,536 5.9 -12.6°
